Year,Month,Day,Hour,Minute,Value (Times are PST for temperature in C)
2018,07,26,00,00,22.70
2018,07,26,00,01,22.70
2018,07,26,00,02,22.70
2018,07,26,00,03,22.70
2018,07,26,00,04,22.70
2018,07,26,00,05,22.70
2018,07,26,00,06,22.60
2018,07,26,00,07,22.60
2018,07,26,00,08,22.60
2018,07,26,00,09,22.60
2018,07,26,00,10,22.60
2018,07,26,00,11,22.60
2018,07,26,00,12,22.50
2018,07,26,00,13,22.50
2018,07,26,00,14,22.50
2018,07,26,00,15,22.40
2018,07,26,00,16,22.40
2018,07,26,00,17,22.40
2018,07,26,00,18,22.40
2018,07,26,00,19,22.30
2018,07,26,00,20,22.30
2018,07,26,00,21,22.30
2018,07,26,00,22,22.30
2018,07,26,00,23,22.30
2018,07,26,00,24,22.30
2018,07,26,00,25,22.20
2018,07,26,00,26,22.20
2018,07,26,00,27,22.20
2018,07,26,00,28,22.10
2018,07,26,00,29,22.10
2018,07,26,00,30,22.10
2018,07,26,00,31,22.00
2018,07,26,00,32,22.00
2018,07,26,00,33,22.00
2018,07,26,00,34,21.90
2018,07,26,00,35,21.90
2018,07,26,00,36,21.80
2018,07,26,00,37,21.80
2018,07,26,00,38,21.80
2018,07,26,00,39,21.70
2018,07,26,00,40,21.70
2018,07,26,00,41,21.60
2018,07,26,00,42,21.60
2018,07,26,00,43,21.60
2018,07,26,00,44,21.60
2018,07,26,00,45,21.50
2018,07,26,00,46,21.40
2018,07,26,00,47,21.40
2018,07,26,00,48,21.40
2018,07,26,00,49,21.40
2018,07,26,00,50,21.30
2018,07,26,00,51,21.30
2018,07,26,00,52,21.30
2018,07,26,00,53,21.20
2018,07,26,00,54,21.20
2018,07,26,00,55,21.20
2018,07,26,00,56,21.20
2018,07,26,00,57,21.20
2018,07,26,00,58,21.20
2018,07,26,00,59,21.20
2018,07,26,01,00,21.20
2018,07,26,01,01,21.20
2018,07,26,01,02,21.20
2018,07,26,01,03,21.20
2018,07,26,01,04,21.10
2018,07,26,01,05,21.10
2018,07,26,01,06,21.00
2018,07,26,01,07,20.90
2018,07,26,01,08,20.80
2018,07,26,01,09,20.80
2018,07,26,01,10,20.70
2018,07,26,01,11,20.70
2018,07,26,01,12,20.60
2018,07,26,01,13,20.60
2018,07,26,01,14,20.60
2018,07,26,01,15,20.50
2018,07,26,01,16,20.50
2018,07,26,01,17,20.40
2018,07,26,01,18,20.30
2018,07,26,01,19,20.30
2018,07,26,01,20,20.20
2018,07,26,01,21,20.20
2018,07,26,01,22,20.10
2018,07,26,01,23,20.10
2018,07,26,01,24,20.10
2018,07,26,01,25,20.00
2018,07,26,01,26,20.00
2018,07,26,01,27,19.90
2018,07,26,01,28,19.80
2018,07,26,01,29,19.80
2018,07,26,01,30,19.80
2018,07,26,01,31,19.70
2018,07,26,01,32,19.70
2018,07,26,01,33,19.70
2018,07,26,01,34,19.70
2018,07,26,01,35,19.70
2018,07,26,01,36,19.60
2018,07,26,01,37,19.60
2018,07,26,01,38,19.50
2018,07,26,01,39,19.50
2018,07,26,01,40,19.40
2018,07,26,01,41,19.40
2018,07,26,01,42,19.30
2018,07,26,01,43,19.30
2018,07,26,01,44,19.30
2018,07,26,01,45,19.20
2018,07,26,01,46,19.20
2018,07,26,01,47,19.10
2018,07,26,01,48,19.10
2018,07,26,01,49,19.00
2018,07,26,01,50,19.00
2018,07,26,01,51,18.90
2018,07,26,01,52,18.90
2018,07,26,01,53,18.80
2018,07,26,01,54,18.80
2018,07,26,01,55,18.70
2018,07,26,01,56,18.70
2018,07,26,01,57,18.60
2018,07,26,01,58,18.60
2018,07,26,01,59,18.60
2018,07,26,02,00,18.50
2018,07,26,02,01,18.50
2018,07,26,02,02,18.40
2018,07,26,02,03,18.40
2018,07,26,02,04,18.30
2018,07,26,02,05,18.30
2018,07,26,02,06,18.20
2018,07,26,02,07,18.20
2018,07,26,02,08,18.10
2018,07,26,02,09,18.10
2018,07,26,02,10,18.00
2018,07,26,02,11,18.00
2018,07,26,02,12,17.90
2018,07,26,02,13,17.90
2018,07,26,02,14,17.90
2018,07,26,02,15,17.80
2018,07,26,02,16,17.80
2018,07,26,02,17,17.80
2018,07,26,02,18,17.70
2018,07,26,02,19,17.70
2018,07,26,02,20,17.70
2018,07,26,02,21,17.60
2018,07,26,02,22,17.60
2018,07,26,02,23,17.60
2018,07,26,02,24,17.50
2018,07,26,02,25,17.50
2018,07,26,02,26,17.40
2018,07,26,02,27,17.40
2018,07,26,02,28,17.40
2018,07,26,02,29,17.40
2018,07,26,02,30,17.30
2018,07,26,02,31,17.30
2018,07,26,02,32,17.30
2018,07,26,02,33,17.20
2018,07,26,02,34,17.20
2018,07,26,02,35,17.20
2018,07,26,02,36,17.20
2018,07,26,02,37,17.10
2018,07,26,02,38,17.10
2018,07,26,02,39,17.10
2018,07,26,02,40,17.00
2018,07,26,02,41,17.00
2018,07,26,02,42,16.90
2018,07,26,02,43,16.90
2018,07,26,02,44,16.90
2018,07,26,02,45,16.80
2018,07,26,02,46,16.80
2018,07,26,02,47,16.80
2018,07,26,02,48,16.80
2018,07,26,02,49,16.80
2018,07,26,02,50,16.70
2018,07,26,02,51,16.70
2018,07,26,02,52,16.70
2018,07,26,02,53,16.70
2018,07,26,02,54,16.70
2018,07,26,02,55,16.60
2018,07,26,02,56,16.60
2018,07,26,02,57,16.60
2018,07,26,02,58,16.60
2018,07,26,02,59,16.60
2018,07,26,03,00,16.50
2018,07,26,03,01,16.50
2018,07,26,03,02,16.50
2018,07,26,03,03,16.40
2018,07,26,03,04,16.40
2018,07,26,03,05,16.40
2018,07,26,03,06,16.40
2018,07,26,03,07,16.40
2018,07,26,03,08,16.30
2018,07,26,03,09,16.30
2018,07,26,03,10,16.30
2018,07,26,03,11,16.30
2018,07,26,03,12,16.30
2018,07,26,03,13,16.30
2018,07,26,03,14,16.20
2018,07,26,03,15,16.20
2018,07,26,03,16,16.20
2018,07,26,03,17,16.20
2018,07,26,03,18,16.20
2018,07,26,03,19,16.20
2018,07,26,03,20,16.10
2018,07,26,03,21,16.10
2018,07,26,03,22,16.10
2018,07,26,03,23,16.10
2018,07,26,03,24,16.10
2018,07,26,03,25,16.10
2018,07,26,03,26,16.10
2018,07,26,03,27,16.00
2018,07,26,03,28,16.00
2018,07,26,03,29,16.00
2018,07,26,03,30,16.00
2018,07,26,03,31,16.00
2018,07,26,03,32,15.90
2018,07,26,03,33,15.90
2018,07,26,03,34,15.90
2018,07,26,03,35,15.90
2018,07,26,03,36,15.80
2018,07,26,03,37,15.80
2018,07,26,03,38,15.80
2018,07,26,03,39,15.80
2018,07,26,03,40,15.80
2018,07,26,03,41,15.80
2018,07,26,03,42,15.80
2018,07,26,03,43,15.80
2018,07,26,03,44,15.80
2018,07,26,03,45,15.70
2018,07,26,03,46,15.70
2018,07,26,03,47,15.70
2018,07,26,03,48,15.70
2018,07,26,03,49,15.70
2018,07,26,03,50,15.70
2018,07,26,03,51,15.70
2018,07,26,03,52,15.70
2018,07,26,03,53,15.70
2018,07,26,03,54,15.70
2018,07,26,03,55,15.60
2018,07,26,03,56,15.60
2018,07,26,03,57,15.60
2018,07,26,03,58,15.60
2018,07,26,03,59,15.60
2018,07,26,04,00,15.60
2018,07,26,04,01,15.60
2018,07,26,04,02,15.60
2018,07,26,04,03,15.60
2018,07,26,04,04,15.60
2018,07,26,04,05,15.50
2018,07,26,04,06,15.50
2018,07,26,04,07,15.50
2018,07,26,04,08,15.50
2018,07,26,04,09,15.40
2018,07,26,04,10,15.40
2018,07,26,04,11,15.40
2018,07,26,04,12,15.40
2018,07,26,04,13,15.40
2018,07,26,04,14,15.40
2018,07,26,04,15,15.40
2018,07,26,04,16,15.30
2018,07,26,04,17,15.30
2018,07,26,04,18,15.30
2018,07,26,04,19,15.30
2018,07,26,04,20,15.30
2018,07,26,04,21,15.30
2018,07,26,04,22,15.30
2018,07,26,04,23,15.30
2018,07,26,04,24,15.20
2018,07,26,04,25,15.20
2018,07,26,04,26,15.20
2018,07,26,04,27,15.20
2018,07,26,04,28,15.20
2018,07,26,04,29,15.20
2018,07,26,04,30,15.20
2018,07,26,04,31,15.10
2018,07,26,04,32,15.10
2018,07,26,04,33,15.10
2018,07,26,04,34,15.10
2018,07,26,04,35,15.10
2018,07,26,04,36,15.00
2018,07,26,04,37,15.00
2018,07,26,04,38,15.00
2018,07,26,04,39,15.00
2018,07,26,04,40,15.00
2018,07,26,04,41,14.90
2018,07,26,04,42,14.90
2018,07,26,04,43,14.90
2018,07,26,04,44,14.90
2018,07,26,04,45,14.90
2018,07,26,04,46,14.90
2018,07,26,04,47,14.90
2018,07,26,04,48,14.80
2018,07,26,04,49,14.80
2018,07,26,04,50,14.80
2018,07,26,04,51,14.80
2018,07,26,04,52,14.80
2018,07,26,04,53,14.70
2018,07,26,04,54,14.70
2018,07,26,04,55,14.70
2018,07,26,04,56,14.70
2018,07,26,04,57,14.70
2018,07,26,04,58,14.70
2018,07,26,04,59,14.70
2018,07,26,05,00,14.70
2018,07,26,05,01,14.70
2018,07,26,05,02,14.70
2018,07,26,05,03,14.70
2018,07,26,05,04,14.60
2018,07,26,05,05,14.60
2018,07,26,05,06,14.60
2018,07,26,05,07,14.60
2018,07,26,05,08,14.60
2018,07,26,05,09,14.60
2018,07,26,05,10,14.60
2018,07,26,05,11,14.60
2018,07,26,05,12,14.60
2018,07,26,05,13,14.60
2018,07,26,05,14,14.60
2018,07,26,05,15,14.60
2018,07,26,05,16,14.60
2018,07,26,05,17,14.50
2018,07,26,05,18,14.50
2018,07,26,05,19,14.50
2018,07,26,05,20,14.50
2018,07,26,05,21,14.40
2018,07,26,05,22,14.40
2018,07,26,05,23,14.40
2018,07,26,05,24,14.40
2018,07,26,05,25,14.40
2018,07,26,05,26,14.40
2018,07,26,05,27,14.40
2018,07,26,05,28,14.40
2018,07,26,05,29,14.40
2018,07,26,05,30,14.40
2018,07,26,05,31,14.40
2018,07,26,05,32,14.40
2018,07,26,05,33,14.30
2018,07,26,05,34,14.30
2018,07,26,05,35,14.30
2018,07,26,05,36,14.30
2018,07,26,05,37,14.30
2018,07,26,05,38,14.30
2018,07,26,05,39,14.30
2018,07,26,05,40,14.30
2018,07,26,05,41,14.20
2018,07,26,05,42,14.20
2018,07,26,05,43,14.20
2018,07,26,05,44,14.20
2018,07,26,05,45,14.20
2018,07,26,05,46,14.20
2018,07,26,05,47,14.20
2018,07,26,05,48,14.20
2018,07,26,05,49,14.20
2018,07,26,05,50,14.10
2018,07,26,05,51,14.10
2018,07,26,05,52,14.10
2018,07,26,05,53,14.10
2018,07,26,05,54,14.10
2018,07,26,05,55,14.10
2018,07,26,05,56,14.10
2018,07,26,05,57,14.10
2018,07,26,05,58,14.10
2018,07,26,05,59,14.10
2018,07,26,06,00,14.10
2018,07,26,06,01,14.10
2018,07,26,06,02,14.10
2018,07,26,06,03,14.10
2018,07,26,06,04,14.10
2018,07,26,06,05,14.10
2018,07,26,06,06,14.10
2018,07,26,06,07,14.10
2018,07,26,06,08,14.10
2018,07,26,06,09,14.10
2018,07,26,06,10,14.00
2018,07,26,06,11,14.00
2018,07,26,06,12,14.00
2018,07,26,06,13,14.00
2018,07,26,06,14,14.00
2018,07,26,06,15,14.00
2018,07,26,06,16,14.00
2018,07,26,06,17,14.00
2018,07,26,06,18,14.00
2018,07,26,06,19,14.00
2018,07,26,06,20,14.00
2018,07,26,06,21,14.00
2018,07,26,06,22,14.00
2018,07,26,06,23,13.90
2018,07,26,06,24,13.90
2018,07,26,06,25,13.90
2018,07,26,06,26,13.90
2018,07,26,06,27,13.90
2018,07,26,06,28,13.90
2018,07,26,06,29,13.90
2018,07,26,06,30,13.90
2018,07,26,06,31,13.90
2018,07,26,06,32,13.90
2018,07,26,06,33,13.90
2018,07,26,06,34,13.90
2018,07,26,06,35,13.90
2018,07,26,06,36,13.90
2018,07,26,06,37,13.90
2018,07,26,06,38,13.90
2018,07,26,06,39,13.90
2018,07,26,06,40,13.90
2018,07,26,06,41,13.90
2018,07,26,06,42,13.90
2018,07,26,06,43,13.90
2018,07,26,06,44,13.90
2018,07,26,06,45,13.90
2018,07,26,06,46,13.90
2018,07,26,06,47,13.90
2018,07,26,06,48,13.90
2018,07,26,06,49,13.90
2018,07,26,06,50,13.90
2018,07,26,06,51,13.90
2018,07,26,06,52,13.90
2018,07,26,06,53,13.90
2018,07,26,06,54,13.90
2018,07,26,06,55,13.90
2018,07,26,06,56,13.90
2018,07,26,06,57,13.90
2018,07,26,06,58,13.90
2018,07,26,06,59,13.90
2018,07,26,07,00,13.90
2018,07,26,07,01,13.90
2018,07,26,07,02,13.90
2018,07,26,07,03,14.00
2018,07,26,07,04,14.00
2018,07,26,07,05,14.00
2018,07,26,07,06,14.10
2018,07,26,07,07,14.10
2018,07,26,07,08,14.20
2018,07,26,07,09,14.20
2018,07,26,07,10,14.30
2018,07,26,07,11,14.30
2018,07,26,07,12,14.30
2018,07,26,07,13,14.40
2018,07,26,07,14,14.40
2018,07,26,07,15,14.50
2018,07,26,07,16,14.60
2018,07,26,07,17,14.60
2018,07,26,07,18,14.70
2018,07,26,07,19,14.70
2018,07,26,07,20,14.80
2018,07,26,07,21,14.80
2018,07,26,07,22,14.90
2018,07,26,07,23,14.90
2018,07,26,07,24,15.00
2018,07,26,07,25,15.00
2018,07,26,07,26,15.10
2018,07,26,07,27,15.20
2018,07,26,07,28,15.20
2018,07,26,07,29,15.20
2018,07,26,07,30,15.30
2018,07,26,07,31,15.30
2018,07,26,07,32,15.40
2018,07,26,07,33,15.40
2018,07,26,07,34,15.50
2018,07,26,07,35,15.60
2018,07,26,07,36,15.60
2018,07,26,07,37,15.70
2018,07,26,07,38,15.70
2018,07,26,07,39,15.80
2018,07,26,07,40,15.90
2018,07,26,07,41,15.90
2018,07,26,07,42,16.00
2018,07,26,07,43,16.10
2018,07,26,07,44,16.10
2018,07,26,07,45,16.20
2018,07,26,07,46,16.20
2018,07,26,07,47,16.30
2018,07,26,07,48,16.30
2018,07,26,07,49,16.40
2018,07,26,07,50,16.40
2018,07,26,07,51,16.50
2018,07,26,07,52,16.50
2018,07,26,07,53,16.60
2018,07,26,07,54,16.60
2018,07,26,07,55,16.60
2018,07,26,07,56,16.70
2018,07,26,07,57,16.70
2018,07,26,07,58,16.80
2018,07,26,07,59,16.80
2018,07,26,08,00,16.90
2018,07,26,08,01,16.90
2018,07,26,08,02,16.90
2018,07,26,08,03,17.00
2018,07,26,08,04,17.00
2018,07,26,08,05,17.10
2018,07,26,08,06,17.10
2018,07,26,08,07,17.10
2018,07,26,08,08,17.20
2018,07,26,08,09,17.20
2018,07,26,08,10,17.20
2018,07,26,08,11,17.30
2018,07,26,08,12,17.30
2018,07,26,08,13,17.40
2018,07,26,08,15,17.60
2018,07,26,08,16,17.60
2018,07,26,08,17,17.60
2018,07,26,08,18,17.70
2018,07,26,08,19,17.70
2018,07,26,08,20,17.70
2018,07,26,08,21,17.80
2018,07,26,08,22,17.80
2018,07,26,08,23,17.90
2018,07,26,08,24,18.00
2018,07,26,08,25,18.10
2018,07,26,08,26,18.10
2018,07,26,08,27,18.20
2018,07,26,08,28,18.20
2018,07,26,08,29,18.30
2018,07,26,08,30,18.40
2018,07,26,08,31,18.40
2018,07,26,08,32,18.40
2018,07,26,08,33,18.40
2018,07,26,08,34,18.40
2018,07,26,08,35,18.40
2018,07,26,08,36,18.40
2018,07,26,08,37,18.50
2018,07,26,08,38,18.60
2018,07,26,08,39,18.60
2018,07,26,08,40,18.60
2018,07,26,08,41,18.60
2018,07,26,08,42,18.60
2018,07,26,08,43,18.50
2018,07,26,08,44,18.50
2018,07,26,08,45,18.50
2018,07,26,08,46,18.40
2018,07,26,08,47,18.40
2018,07,26,08,48,18.40
2018,07,26,08,49,18.40
2018,07,26,08,50,18.50
2018,07,26,08,51,18.50
2018,07,26,08,52,18.50
2018,07,26,08,53,18.50
2018,07,26,08,54,18.50
2018,07,26,08,55,18.50
2018,07,26,08,56,18.50
2018,07,26,08,57,18.60
2018,07,26,08,58,18.60
2018,07,26,08,59,18.60
2018,07,26,09,00,18.60
2018,07,26,09,01,18.70
2018,07,26,09,02,18.70
2018,07,26,09,03,18.70
2018,07,26,09,04,18.70
2018,07,26,09,05,18.70
2018,07,26,09,06,18.80
2018,07,26,09,07,18.80
2018,07,26,09,08,18.80
2018,07,26,09,09,18.90
2018,07,26,09,10,19.00
2018,07,26,09,11,19.10
2018,07,26,09,12,19.20
2018,07,26,09,13,19.20
2018,07,26,09,14,19.30
2018,07,26,09,15,19.30
2018,07,26,09,16,19.40
2018,07,26,09,17,19.40
2018,07,26,09,18,19.40
2018,07,26,09,19,19.40
2018,07,26,09,20,19.40
2018,07,26,09,21,19.40
2018,07,26,09,22,19.50
2018,07,26,09,23,19.50
2018,07,26,09,24,19.60
2018,07,26,09,25,19.60
2018,07,26,09,26,19.60
2018,07,26,09,27,19.60
2018,07,26,09,28,19.70
2018,07,26,09,29,19.70
2018,07,26,09,30,19.70
2018,07,26,09,31,19.80
2018,07,26,13,08,30.40
2018,07,26,13,09,30.50
2018,07,26,13,10,30.50
2018,07,26,13,11,30.50
2018,07,26,13,12,30.50
2018,07,26,13,13,30.50
2018,07,26,13,14,30.50
2018,07,26,13,15,30.40
2018,07,26,13,16,30.40
2018,07,26,13,17,30.50
2018,07,26,13,18,30.60
2018,07,26,13,19,30.70
2018,07,26,13,20,30.80
2018,07,26,13,21,30.90
2018,07,26,13,22,31.00
2018,07,26,13,23,31.10
2018,07,26,13,24,31.20
2018,07,26,13,25,31.20
2018,07,26,13,26,31.30
2018,07,26,13,27,31.40
2018,07,26,13,28,31.40
2018,07,26,13,29,31.50
2018,07,26,13,30,31.60
2018,07,26,13,31,31.60
2018,07,26,13,32,31.60
2018,07,26,13,33,31.70
2018,07,26,13,34,31.70
2018,07,26,13,35,31.70
2018,07,26,13,36,31.80
2018,07,26,13,37,31.90
2018,07,26,13,38,32.00
2018,07,26,13,39,32.00
2018,07,26,13,40,32.00
2018,07,26,13,41,31.90
2018,07,26,13,42,31.80
2018,07,26,13,43,31.80
2018,07,26,13,44,31.90
2018,07,26,13,45,32.00
2018,07,26,13,46,32.10
2018,07,26,13,47,32.10
2018,07,26,13,48,32.10
2018,07,26,13,49,32.10
2018,07,26,13,50,32.20
2018,07,26,13,51,32.20
2018,07,26,13,52,32.20
2018,07,26,13,53,32.10
2018,07,26,13,54,32.10
2018,07,26,13,55,32.10
2018,07,26,13,56,32.10
2018,07,26,13,57,32.00
2018,07,26,13,58,32.00
2018,07,26,13,59,32.10
2018,07,26,14,00,32.10
2018,07,26,14,01,32.20
2018,07,26,14,02,32.20
2018,07,26,14,03,32.30
2018,07,26,14,04,32.40
2018,07,26,14,05,32.60
2018,07,26,14,06,32.70
2018,07,26,14,07,32.60
2018,07,26,14,08,32.50
2018,07,26,14,09,32.30
2018,07,26,14,10,32.20
2018,07,26,14,11,32.10
2018,07,26,14,12,32.10
2018,07,26,14,13,32.10
2018,07,26,14,14,32.10
2018,07,26,14,15,32.20
2018,07,26,14,16,32.20
2018,07,26,14,17,32.10
2018,07,26,14,18,32.10
2018,07,26,14,19,32.00
2018,07,26,14,20,31.90
2018,07,26,14,21,31.90
2018,07,26,14,22,31.90
2018,07,26,14,23,31.90
2018,07,26,14,24,31.90
2018,07,26,14,25,32.00
2018,07,26,14,26,32.00
2018,07,26,14,27,32.20
2018,07,26,14,28,32.20
2018,07,26,14,29,32.20
2018,07,26,14,30,32.30
2018,07,26,14,31,32.30
2018,07,26,14,32,32.30
2018,07,26,14,33,32.30
2018,07,26,14,34,32.30
2018,07,26,14,35,32.30
2018,07,26,14,36,32.30
2018,07,26,14,37,32.30
2018,07,26,14,38,32.30
2018,07,26,14,39,32.40
2018,07,26,14,40,32.40
2018,07,26,14,41,32.40
2018,07,26,14,42,32.40
2018,07,26,14,43,32.40
2018,07,26,14,44,32.40
2018,07,26,14,45,32.30
2018,07,26,14,46,32.30
2018,07,26,14,47,32.30
2018,07,26,14,48,32.30
2018,07,26,14,49,32.20
2018,07,26,14,50,32.20
2018,07,26,14,51,32.20
2018,07,26,14,52,32.20
2018,07,26,14,53,32.30
2018,07,26,14,54,32.30
2018,07,26,14,55,32.20
2018,07,26,14,56,32.20
2018,07,26,14,57,32.20
2018,07,26,14,58,32.20
2018,07,26,14,59,32.20
2018,07,26,15,00,32.20
2018,07,26,15,01,32.20
2018,07,26,15,02,32.20
2018,07,26,15,03,32.30
2018,07,26,15,04,32.40
2018,07,26,15,05,32.40
2018,07,26,15,06,32.30
2018,07,26,15,07,32.40
2018,07,26,15,08,32.40
2018,07,26,15,09,32.40
2018,07,26,15,10,32.40
2018,07,26,15,11,32.40
2018,07,26,15,12,32.40
2018,07,26,15,13,32.40
2018,07,26,15,14,32.30
2018,07,26,15,15,32.30
2018,07,26,15,16,32.30
2018,07,26,15,17,32.30
2018,07,26,15,18,32.20
2018,07,26,15,19,32.20
2018,07,26,15,20,32.20
2018,07,26,15,21,32.20
2018,07,26,15,22,32.20
2018,07,26,15,23,32.10
2018,07,26,15,24,32.00
2018,07,26,15,25,31.90
2018,07,26,15,26,31.90
2018,07,26,15,27,32.00
2018,07,26,15,28,32.00
2018,07,26,15,29,32.10
2018,07,26,15,30,32.10
2018,07,26,15,31,32.10
2018,07,26,15,32,32.00
2018,07,26,15,33,32.00
2018,07,26,15,34,32.00
2018,07,26,15,35,32.00
2018,07,26,15,36,32.00
2018,07,26,15,37,32.00
2018,07,26,15,38,32.10
2018,07,26,15,39,32.10
2018,07,26,15,40,32.00
2018,07,26,15,41,32.00
2018,07,26,15,42,32.00
2018,07,26,15,43,31.90
2018,07,26,15,44,31.90
2018,07,26,15,45,31.80
2018,07,26,15,46,31.80
2018,07,26,15,47,31.80
2018,07,26,15,48,31.80
2018,07,26,15,49,31.80
2018,07,26,15,50,31.90
2018,07,26,15,51,31.80
2018,07,26,15,52,31.80
2018,07,26,15,53,31.90
2018,07,26,15,54,31.90
2018,07,26,15,55,31.80
2018,07,26,15,56,31.70
2018,07,26,15,57,31.70
2018,07,26,15,58,31.70
2018,07,26,15,59,31.70
2018,07,26,16,00,31.70
2018,07,26,16,01,31.60
2018,07,26,16,02,31.60
2018,07,26,16,03,31.60
2018,07,26,16,04,31.60
2018,07,26,16,05,31.60
2018,07,26,16,06,31.70
2018,07,26,16,07,31.70
2018,07,26,16,08,31.80
2018,07,26,16,09,31.80
2018,07,26,16,10,31.90
2018,07,26,16,11,31.80
2018,07,26,16,12,31.70
2018,07,26,16,13,31.60
2018,07,26,16,14,31.60
2018,07,26,16,15,31.60
2018,07,26,16,16,31.60
2018,07,26,16,17,31.70
2018,07,26,16,18,31.70
2018,07,26,16,19,31.70
2018,07,26,16,20,31.60
2018,07,26,16,21,31.60
2018,07,26,16,22,31.60
2018,07,26,16,23,31.60
2018,07,26,16,24,31.50
2018,07,26,16,25,31.40
2018,07,26,16,26,31.40
2018,07,26,16,27,31.30
2018,07,26,16,28,31.20
2018,07,26,16,29,31.20
2018,07,26,16,30,31.20
2018,07,26,16,31,31.20
2018,07,26,16,32,31.20
2018,07,26,16,33,31.10
2018,07,26,16,34,31.10
2018,07,26,16,35,31.10
2018,07,26,16,36,31.10
2018,07,26,16,37,31.00
2018,07,26,16,38,30.90
2018,07,26,16,39,30.80
2018,07,26,16,40,30.80
2018,07,26,16,41,30.80
2018,07,26,16,42,30.80
2018,07,26,16,43,30.80
2018,07,26,16,44,30.90
2018,07,26,16,45,30.90
2018,07,26,16,46,30.90
2018,07,26,16,47,31.00
2018,07,26,16,48,30.90
2018,07,26,16,49,30.80
2018,07,26,16,50,30.80
2018,07,26,16,51,30.80
2018,07,26,16,52,30.70
2018,07,26,16,53,30.60
2018,07,26,16,54,30.40
2018,07,26,16,55,30.40
2018,07,26,16,56,30.40
2018,07,26,16,57,30.40
2018,07,26,16,58,30.40
2018,07,26,16,59,30.40
2018,07,26,17,00,30.50
2018,07,26,17,01,30.60
2018,07,26,17,02,30.60
2018,07,26,17,03,30.60
2018,07,26,17,04,30.60
2018,07,26,17,05,30.60
2018,07,26,17,06,30.60
2018,07,26,17,07,30.50
2018,07,26,17,08,30.40
2018,07,26,17,09,30.50
2018,07,26,17,10,30.50
2018,07,26,17,11,30.60
2018,07,26,17,12,30.60
2018,07,26,17,13,30.60
2018,07,26,17,14,30.60
2018,07,26,17,15,30.60
2018,07,26,17,16,30.60
2018,07,26,17,17,30.60
2018,07,26,17,18,30.60
2018,07,26,17,19,30.60
2018,07,26,17,20,30.60
2018,07,26,17,21,30.70
2018,07,26,17,22,30.70
2018,07,26,17,23,30.70
2018,07,26,17,24,30.70
2018,07,26,17,25,30.60
2018,07,26,17,26,30.60
2018,07,26,17,27,30.60
2018,07,26,17,28,30.60
2018,07,26,17,29,30.70
2018,07,26,17,30,30.70
2018,07,26,17,31,30.70
2018,07,26,17,32,30.70
2018,07,26,17,33,30.70
2018,07,26,17,34,30.60
2018,07,26,17,35,30.60
2018,07,26,17,36,30.60
2018,07,26,17,37,30.60
2018,07,26,17,38,30.70
2018,07,26,17,39,30.70
2018,07,26,17,40,30.70
2018,07,26,17,41,30.70
2018,07,26,17,42,30.70
2018,07,26,17,43,30.60
2018,07,26,17,44,30.60
2018,07,26,17,45,30.60
2018,07,26,17,46,30.60
2018,07,26,17,47,30.60
2018,07,26,17,48,30.50
2018,07,26,17,49,30.40
2018,07,26,17,50,30.30
2018,07,26,17,51,30.30
2018,07,26,17,52,30.30
2018,07,26,17,53,30.20
2018,07,26,17,54,30.20
2018,07,26,17,55,30.20
2018,07,26,17,56,30.20
2018,07,26,17,57,30.30
2018,07,26,17,58,30.30
2018,07,26,17,59,30.20
2018,07,26,18,00,30.30
2018,07,26,18,01,30.30
2018,07,26,18,02,30.40
2018,07,26,18,03,30.40
2018,07,26,18,04,30.30
2018,07,26,18,05,30.30
2018,07,26,18,06,30.30
2018,07,26,18,07,30.20
2018,07,26,18,08,30.20
2018,07,26,18,09,30.20
2018,07,26,18,10,30.20
2018,07,26,18,11,30.20
2018,07,26,18,12,30.20
2018,07,26,18,13,30.20
2018,07,26,18,14,30.20
2018,07,26,18,15,30.20
2018,07,26,18,16,30.20
2018,07,26,18,17,30.20
2018,07,26,18,18,30.20
2018,07,26,18,19,30.30
2018,07,26,18,20,30.30
2018,07,26,18,21,30.30
2018,07,26,18,22,30.20
2018,07,26,18,23,30.20
2018,07,26,18,24,30.10
2018,07,26,18,25,30.10
2018,07,26,18,26,30.00
2018,07,26,18,27,29.90
2018,07,26,18,28,29.90
2018,07,26,18,29,29.90
2018,07,26,18,30,29.90
2018,07,26,18,31,29.90
2018,07,26,18,32,29.90
2018,07,26,18,33,29.90
2018,07,26,18,34,29.90
2018,07,26,18,35,29.90
2018,07,26,18,36,29.90
2018,07,26,18,37,29.90
2018,07,26,18,38,29.90
2018,07,26,18,39,29.80
2018,07,26,18,40,29.80
2018,07,26,18,41,29.70
2018,07,26,18,42,29.60
2018,07,26,18,43,29.60
2018,07,26,18,44,29.60
2018,07,26,18,45,29.50
2018,07,26,18,46,29.40
2018,07,26,18,47,29.30
2018,07,26,18,48,29.20
2018,07,26,18,49,29.20
2018,07,26,18,50,29.20
2018,07,26,18,51,29.20
2018,07,26,18,52,29.20
2018,07,26,18,53,29.20
2018,07,26,18,54,29.20
2018,07,26,18,55,29.20
2018,07,26,18,56,29.20
2018,07,26,18,57,29.20
2018,07,26,18,58,29.20
2018,07,26,18,59,29.20
2018,07,26,19,00,29.20
2018,07,26,19,01,29.20
2018,07,26,19,02,29.10
2018,07,26,19,03,29.10
2018,07,26,19,04,29.00
2018,07,26,19,05,29.00
2018,07,26,19,06,28.90
2018,07,26,19,07,28.90
2018,07,26,19,08,28.90
2018,07,26,19,09,28.90
2018,07,26,19,10,28.80
2018,07,26,19,11,28.80
2018,07,26,19,12,28.70
2018,07,26,19,13,28.70
2018,07,26,19,14,28.60
2018,07,26,19,15,28.60
2018,07,26,19,16,28.50
2018,07,26,19,17,28.50
2018,07,26,19,18,28.40
2018,07,26,19,19,28.30
2018,07,26,19,20,28.30
2018,07,26,19,21,28.30
2018,07,26,19,22,28.30
2018,07,26,19,23,28.30
2018,07,26,19,24,28.30
2018,07,26,19,25,28.30
2018,07,26,19,26,28.30
2018,07,26,19,27,28.30
2018,07,26,19,28,28.30
2018,07,26,19,29,28.30
2018,07,26,19,30,28.20
2018,07,26,19,31,28.20
2018,07,26,19,32,28.20
2018,07,26,19,33,28.20
2018,07,26,19,34,28.20
2018,07,26,19,35,28.10
2018,07,26,19,36,28.10
2018,07,26,19,37,28.00
2018,07,26,19,38,28.00
2018,07,26,19,39,27.90
2018,07,26,19,40,27.80
2018,07,26,19,41,27.70
2018,07,26,19,42,27.60
2018,07,26,19,43,27.50
2018,07,26,19,44,27.40
2018,07,26,19,45,27.20
2018,07,26,19,46,27.10
2018,07,26,19,47,27.00
2018,07,26,19,48,26.80
2018,07,26,19,49,26.70
2018,07,26,19,50,26.70
2018,07,26,19,51,26.60
2018,07,26,19,52,26.60
2018,07,26,19,53,26.50
2018,07,26,19,54,26.50
2018,07,26,19,55,26.50
2018,07,26,19,56,26.50
2018,07,26,19,57,26.50
2018,07,26,19,58,26.40
2018,07,26,19,59,26.40
2018,07,26,20,00,26.40
2018,07,26,20,01,26.30
2018,07,26,20,02,26.30
2018,07,26,20,03,26.20
2018,07,26,20,04,26.20
2018,07,26,20,05,26.10
2018,07,26,20,06,26.10
2018,07,26,20,07,26.10
2018,07,26,20,08,26.10
2018,07,26,20,09,26.10
2018,07,26,20,10,26.00
2018,07,26,20,11,26.00
2018,07,26,20,12,25.90
2018,07,26,20,13,25.90
2018,07,26,20,14,25.90
2018,07,26,20,15,25.80
2018,07,26,20,16,25.80
2018,07,26,20,17,25.80
2018,07,26,20,18,25.70
2018,07,26,20,19,25.60
2018,07,26,20,20,25.50
2018,07,26,20,21,25.40
2018,07,26,20,22,25.40
2018,07,26,20,23,25.30
2018,07,26,20,24,25.30
2018,07,26,20,25,25.20
2018,07,26,20,26,25.20
2018,07,26,20,27,25.20
2018,07,26,20,28,25.10
2018,07,26,20,29,25.10
2018,07,26,20,30,25.10
2018,07,26,20,31,25.00
2018,07,26,20,32,25.00
2018,07,26,20,33,24.90
2018,07,26,20,34,24.90
2018,07,26,20,35,24.80
2018,07,26,20,36,24.80
2018,07,26,20,37,24.80
2018,07,26,20,38,24.70
2018,07,26,20,39,24.70
2018,07,26,20,40,24.60
2018,07,26,20,41,24.60
2018,07,26,20,42,24.60
2018,07,26,20,43,24.60
2018,07,26,20,44,24.60
2018,07,26,20,45,24.50
2018,07,26,20,46,24.50
2018,07,26,20,47,24.40
2018,07,26,20,48,24.40
2018,07,26,20,49,24.40
2018,07,26,20,50,24.30
2018,07,26,20,51,24.30
2018,07,26,20,52,24.30
2018,07,26,20,53,24.20
2018,07,26,20,54,24.20
2018,07,26,20,55,24.20
2018,07,26,20,56,24.10